Flag Weather past 2 weeks in Grande Prairie, Alberta, Canada

Now
14 °F

Light snow. Partly sunny.


Feels Like: 14 °F
Forecast: 2 / 30 °F
Wind: 2 mph from North

Location: Grande Prairie

Current Time: Nov 23, 2014 at 3:18:39 PM

Latest Report: Nov 23, 2014 at 2:00 PM


Visibility: 10 mi

Pressure: 29.80 "Hg

Humidity: 85%

Dew point: 10 °F

Location of Grande PrairieLocation

Historic Weather in Grande Prairie — Graph

°F

Grande Prairie temperature yesterday

Maximum temperature yesterday: 30 °F (at 12:00 AM)
Minimum temperature yesterday: 10 °F (at 10:00 PM)
Average temperature yesterday: 19 °F

Past Weeks' High & Low Weather Summary

 TemperatureHumidityPressure
High39 °F (Nov 20, 9:45 PM)100% (Nov 16, 5:00 AM)31.00 "Hg (Nov 16, 5:00 AM)
Low-18 °F (Nov 13, 3:00 AM)60% (Nov 17, 11:00 PM)29.23 "Hg (Nov 22, 2:00 AM)
Average11 °F85%30.28 "Hg
* Reported Nov 8 2:00 PM — Nov 23 2:00 PM, Grande Prairie, Weather by CustomWeather, © 2014

Note: Actual official high and low records may vary slightly from our data, if they occured in-between our weather recording intervals... More about our weather records

Advertising

Grande Prairie weather history for previous 24 hours

 ConditionsComfort  
Time TempWeatherWind HumidityBarometerVisibility
2:00 PM
Nov 23
14 °FLight snow. Partly sunny.2 mph85%29.80 "Hg10 mi
1:00 PM12 °FLight snow. Mostly cloudy.No wind85%29.80 "Hg15 mi
12:00 PM10 °FScattered showers. Mostly cloudy.3 mph85%29.79 "Hg20 mi
11:00 AM7 °FMostly cloudy.6 mph85%29.81 "Hg25 mi
10:00 AM5 °FMostly cloudy.3 mph92%29.81 "Hg25 mi
9:00 AM3 °FPartly sunny.3 mph85%29.81 "Hg25 mi
8:00 AM3 °FPassing clouds.6 mph85%29.82 "Hg25 mi
7:00 AM1 °FPassing clouds.6 mph92%29.83 "Hg25 mi
6:00 AM1 °FPassing clouds.7 mph85%29.84 "Hg25 mi
5:54 AM1 °FPassing clouds.6 mph85%29.84 "Hg25 mi
5:00 AM1 °FPassing clouds.6 mph85%29.86 "Hg25 mi
4:00 AM1 °FPassing clouds.6 mph92%29.87 "Hg25 mi
3:00 AM1 °FPassing clouds.3 mph92%29.88 "Hg25 mi
2:00 AM5 °FPassing clouds.3 mph92%29.87 "Hg25 mi
1:00 AM5 °FPassing clouds.3 mph92%29.87 "Hg25 mi
12:00 AM10 °FPassing clouds.2 mph79%29.87 "Hg25 mi
11:00 PM
Nov 22
12 °FPassing clouds.2 mph79%29.86 "Hg25 mi
10:00 PM10 °FPassing clouds.3 mph85%29.85 "Hg25 mi
9:00 PM12 °FPassing clouds.5 mph85%29.84 "Hg20 mi
8:00 PM14 °FMostly cloudy.9 mph79%29.83 "Hg15 mi
7:00 PM14 °FLight snow. Mostly cloudy.9 mph79%29.81 "Hg15 mi
6:00 PM14 °FLight snow. Mostly cloudy.12 mph79%29.78 "Hg10 mi
5:00 PM14 °FCold.12 mph85%29.75 "Hg10 mi
4:00 PM14 °FLight snow. Overcast.13 mph85%29.71 "Hg3 mi
3:00 PM16 °FLight snow. Overcast.17 mph79%29.66 "Hg10 mi
Weather by CustomWeather, © 2014

See weather overviewHow to use our weather pages